Weather History for Glasgow, KY

Change the Weather History Date:

Sunday, February 17, 2013

  Actual Average Record
Temperature  
Mean Temperature 26 °F -  
Max Temperature 37 °F 48 °F 66 °F (1959)
Min Temperature 15 °F 30 °F -7 °F (1958)
Degree Days  
Heating Degree Days 39    
Moisture  
Dew Point -4 °F    
Average Humidity 32    
Maximum Humidity 58    
Minimum Humidity 5    
Precipitation  
Precipitation 0.00 in - - ()
Sea Level Pressure  
Sea Level Pressure 30.20 in    
Wind  
Wind Speed 2 mph (SSW)    
Max Wind Speed 10 mph    
Max Gust Speed -    
Visibility 10 miles    
Events      
Averages and records for this station are not official NWS values.
T = Trace of Precipitation, MM = Missing Value Source: NWS Daily Summary

Daily Weather History Graph

Daily Weather History Graph

Search for Another Location

Airport:

Trip Planner

Search our weather history database for the weather conditions in past years. The results will help you decide how hot, cold, wet, or windy it might be!

Date:

Astronomy

Feb. 17, 2013 Rise Set
Actual Time 6:29 AM CST 5:26 PM CST
Civil Twilight 6:03 AM CST 5:52 PM CST
Nautical Twilight 5:32 AM CST 6:23 PM CST
Astronomical Twilight 5:02 AM CST 6:53 PM CST
Moon 10:33 AM CST (2/17) 12:10 AM CST (2/17)
Length of Visible Light 11h 49m
Length of Day
10h 56m
Waxing Crescent, 49% of the Moon is Illuminated
Feb 17
Waxing Crescent
Feb 17
First Quarter
Feb 25
Full
Mar 4
Last Quarter
Mar 11
New

Hourly Weather History & Observations

Time (CST) Temp. Windchill Dew Point Humidity Pressure Visibility Wind Dir Wind Speed Gust Speed Precip Events Conditions
12:15 AM 19.6 °F - -0.4 °F 42% 30.17 in 10.0 mi Calm Calm - N/A   Clear
12:35 AM 20.3 °F - -0.4 °F 40% 30.17 in 10.0 mi Calm Calm - N/A   Clear
12:55 AM 19.8 °F - -0.2 °F 42% 30.17 in 10.0 mi Calm Calm - N/A   Clear
1:15 AM 18.3 °F - 0.1 °F 45% 30.17 in 10.0 mi Calm Calm - N/A   Clear
1:35 AM 18.9 °F - 0.9 °F 46% 30.17 in 10.0 mi Calm Calm - N/A   Clear
1:55 AM 18.7 °F - 1.2 °F 47% 30.18 in 10.0 mi Calm Calm - N/A   Clear
2:15 AM 17.6 °F - 1.4 °F 49% 30.18 in 10.0 mi Calm Calm - N/A   Clear
2:35 AM 17.4 °F - 2.5 °F 52% 30.17 in 10.0 mi Calm Calm - N/A   Clear
2:55 AM 17.1 °F - 2.5 °F 53% 30.18 in 10.0 mi Calm Calm - N/A   Clear
3:15 AM 16.9 °F - 2.8 °F 54% 30.18 in 10.0 mi Calm Calm - N/A   Clear
3:35 AM 17.6 °F - 3.4 °F 54% 30.18 in 10.0 mi Calm Calm - N/A   Clear
3:55 AM 17.2 °F - 2.7 °F 53% 30.18 in 10.0 mi Calm Calm - N/A   Clear
4:15 AM 17.2 °F - 2.7 °F 53% 30.18 in 10.0 mi Calm Calm - N/A   Clear
4:35 AM 16.5 °F - 2.5 °F 54% 30.18 in 10.0 mi Calm Calm - N/A   Clear
4:55 AM 15.6 °F - 2.5 °F 56% 30.19 in 10.0 mi Calm Calm - N/A   Clear
5:15 AM 15.6 °F - 2.8 °F 57% 30.20 in 10.0 mi Calm Calm - N/A   Clear
5:35 AM 16.0 °F - 3.2 °F 57% 30.20 in 10.0 mi Calm Calm - N/A   Clear
5:55 AM 15.4 °F - 2.8 °F 58% 30.21 in 10.0 mi Calm Calm - N/A   Clear
6:15 AM 16.5 °F - 3.9 °F 58% 30.21 in 10.0 mi Calm Calm - N/A   Clear
6:35 AM 16.7 °F - 2.7 °F 54% 30.21 in 10.0 mi Calm Calm - N/A   Clear
6:55 AM 15.4 °F - 1.6 °F 54% 30.23 in 10.0 mi Calm Calm - N/A   Clear
7:15 AM 16.7 °F - 3.7 °F 57% 30.23 in 10.0 mi Calm Calm - N/A   Clear
7:55 AM 22.1 °F - 5.0 °F 48% 30.25 in 10.0 mi Calm Calm - N/A   Clear
8:15 AM 24.3 °F - 2.7 °F 39% 30.26 in 10.0 mi Calm Calm - N/A   Clear
8:35 AM 26.2 °F 22.1 °F 2.8 °F 37% 30.26 in 10.0 mi SW 3.5 mph - N/A   Clear
8:55 AM 28.0 °F 22.8 °F 1.9 °F 33% 30.27 in 10.0 mi WSW 4.6 mph - N/A   Clear
9:15 AM 29.7 °F - 0.3 °F 28% 30.27 in 10.0 mi Calm Calm - N/A   Clear
9:35 AM 30.9 °F 24.3 °F -3.6 °F 23% 30.27 in 10.0 mi West 6.9 mph - N/A   Clear
9:55 AM 32.0 °F 27.5 °F -7.1 °F 18% 30.27 in 10.0 mi West 4.6 mph - N/A   Clear
10:15 AM 33.3 °F 27.1 °F -10.3 °F 15% 30.27 in 10.0 mi SW 6.9 mph - N/A   Clear
10:35 AM 34.5 °F 28.6 °F -12.8 °F 13% 30.27 in 10.0 mi West 6.9 mph - N/A   Clear
10:55 AM 36.0 °F 33.3 °F -19.5 °F 9% 30.27 in 10.0 mi West 3.5 mph - N/A   Clear
11:15 AM 36.1 °F 30.6 °F -28.5 °F 5% 30.26 in 10.0 mi West 6.9 mph - N/A   Clear
11:35 AM 37.2 °F 32.6 °F -27.0 °F 6% 30.26 in 10.0 mi WSW 5.8 mph - N/A   Clear
11:55 AM 37.9 °F - -29.6 °F 5% 30.25 in 10.0 mi Calm Calm - N/A   Clear
12:15 PM - - - N/A% 30.24 in 10.0 mi SSW 3.5 mph - N/A   Clear
12:55 PM - - - N/A% 30.22 in 10.0 mi West 10.4 mph - N/A   Clear
1:15 PM - - - N/A% 30.22 in 10.0 mi West 8.1 mph - N/A   Clear
1:35 PM - - - N/A% 30.21 in 10.0 mi WSW 10.4 mph - N/A   Clear
1:55 PM - - - N/A% 30.21 in 10.0 mi West 5.8 mph - N/A   Clear
2:15 PM - - - N/A% 30.21 in 10.0 mi WSW 9.2 mph - N/A   Clear
2:35 PM - - - N/A% 30.21 in 10.0 mi West 4.6 mph - N/A   Clear
2:55 PM - - - N/A% 30.21 in 10.0 mi WNW 8.1 mph - N/A   Scattered Clouds
3:15 PM - - - N/A% 30.20 in 10.0 mi WSW 8.1 mph - N/A   Scattered Clouds
3:35 PM - - - N/A% 30.19 in 10.0 mi Calm Calm - N/A   Clear
3:55 PM - - - N/A% 30.19 in 10.0 mi Calm Calm - N/A   Clear
4:15 PM - - - N/A% 30.19 in 10.0 mi West 3.5 mph - N/A   Clear
4:35 PM - - - N/A% 30.19 in 10.0 mi SW 4.6 mph - N/A   Clear
4:55 PM - - - N/A% 30.20 in 10.0 mi SW 3.5 mph - N/A   Clear
5:15 PM - - - N/A% 30.19 in 10.0 mi Calm Calm - N/A   Clear
5:35 PM 35.8 °F - -13.7 °F 12% 30.18 in 10.0 mi Calm Calm - N/A   Clear
5:55 PM 36.0 °F - -17.0 °F 10% 30.19 in 10.0 mi Calm Calm - N/A   Clear
6:15 PM 34.7 °F - -11.9 °F 13% 30.18 in 10.0 mi Calm Calm - N/A   Mostly Cloudy
6:35 PM 32.9 °F 29.8 °F -6.5 °F 18% 30.18 in 10.0 mi East 3.5 mph - N/A   Scattered Clouds
6:55 PM 32.0 °F 28.7 °F -3.3 °F 22% 30.18 in 10.0 mi East 3.5 mph - N/A   Clear
7:15 PM 31.3 °F 26.6 °F -1.5 °F 25% 30.18 in 10.0 mi East 4.6 mph - N/A   Mostly Cloudy
7:35 PM 30.7 °F 27.3 °F 0.1 °F 27% 30.18 in 10.0 mi ESE 3.5 mph - N/A   Scattered Clouds
7:55 PM 30.2 °F 26.7 °F 1.6 °F 30% 30.18 in 10.0 mi East 3.5 mph - N/A   Clear
8:15 PM 31.1 °F 27.7 °F -1.5 °F 25% 30.18 in 10.0 mi ESE 3.5 mph - N/A   Clear
8:35 PM 31.3 °F 27.9 °F -2.2 °F 24% 30.18 in 10.0 mi ESE 3.5 mph - N/A   Clear
8:55 PM 31.8 °F 28.5 °F -3.1 °F 22% 30.19 in 10.0 mi SE 3.5 mph - N/A   Clear
9:15 PM 32.0 °F - -5.1 °F 20% 30.18 in 10.0 mi Calm Calm - N/A   Clear
9:35 PM 32.9 °F - -8.1 °F 17% 30.18 in 10.0 mi Calm Calm - N/A   Clear
9:55 PM 33.3 °F 30.2 °F -9.8 °F 15% 30.18 in 10.0 mi SE 3.5 mph - N/A   Clear
10:15 PM 33.6 °F 30.6 °F -10.1 °F 15% 30.19 in 10.0 mi SSE 3.5 mph - N/A   Clear
10:35 PM 33.4 °F 30.4 °F -9.8 °F 15% 30.18 in 10.0 mi SSE 3.5 mph - N/A   Clear
10:55 PM 33.4 °F 28.1 °F -10.3 °F 15% 30.18 in 10.0 mi SE 5.8 mph - N/A   Clear
11:15 PM 33.4 °F 29.1 °F -10.1 °F 15% 30.18 in 10.0 mi SE 4.6 mph - N/A   Clear
11:35 PM 33.3 °F 28.9 °F -9.9 °F 15% 30.18 in 10.0 mi SE 4.6 mph - N/A   Clear
11:55 PM 33.4 °F 30.4 °F -9.2 °F 16% 30.18 in 10.0 mi SSE 3.5 mph - N/A   Clear